Regional Weather Roundup
Issued by NWS Sioux Falls, SD

Home | Current Version | Previous Version | Text Only | Print | Product List | Glossary Off
Versions: 1 2 3 4 5 6 7 8 9 10 11 12 13 14 15 16 17 18 19 20 21 22 23 24 25 26 27 28 29 30 31 32 33 34 35 36 37 38 39 40 41 42 43 44 45 46 47 48 49 50

000
ASUS43 KFSD 311410
RWRFSD

WEATHER ROUNDUP FOR SE SOUTH DAKOTA/SW MINNESOTA/NW IOWA
NATIONAL WEATHER SERVICE SIOUX FALLS SD
900 AM CDT WED AUG 31 2016

NOTE: "FAIR" INDICATES FEW OR NO CLOUDS BELOW 12,000 FEET WITH NO
SIGNIFICANT WEATHER AND OR OBSTRUCTIONS TO VISIBILITY.


SDZ038>040-050-052>070-311500-
SOUTHEAST SOUTH DAKOTA

CITY           SKY/WX    TMP DP  RH WIND       PRES   REMARKS
BROOKINGS      MOSUNNY   62  58  86 CALM        N/A
CHAMBERLAIN    PTSUNNY   70  69  98 E6        30.24R
HURON          LGT RAIN  63  60  90 S7        30.23F
MADISON        FAIR      63  63 100 CALM      30.25F
MITCHELL       SUNNY     66  63  90 SE5       30.24R
SIOUX FALLS    MOSUNNY   66  60  81 CALM      30.24S
WINNER         FAIR      69  64  84 SE7       30.22S
YANKTON        PTSUNNY   64  61  88 E3        30.21F
$$

MNZ071-072-080-081-089-090-097-098-311500-
SOUTHWEST MINNESOTA

CITY           SKY/WX    TMP DP  RH WIND       PRES   REMARKS
FAIRMONT       SUNNY     62  59  90 N5        30.22S
JACKSON        SUNNY     61  59  94 CALM      30.24S
LUVERNE        SUNNY     61  55  82 CALM      30.25S
MARSHALL       SUNNY     62  59  90 NW3       30.24F
MONTEVIDEO     MOSUNNY   68  63  83 CALM      30.26S
REDWOOD FALLS  SUNNY     63  58  83 NW3       30.23S
TRACY          SUNNY     64  60  87 NW3       30.25S
WINDOM         SUNNY     64  57  77 CALM      30.23S
WORTHINGTON    SUNNY     64  59  83 N3        30.25S
$$

IAZ001>003-012>014-020>022-031-032-NEZ013-014-SDZ071-311500-
NORTHWEST IOWA

CITY           SKY/WX    TMP DP  RH WIND       PRES   REMARKS
CHEROKEE       SUNNY     61  61 100 NE3       30.22S
DENISON        CLOUDY    61  61 100 CALM      30.19R
ESTHERVILLE    SUNNY     62  60  93 N6        30.22S
LE MARS        SUNNY     63  61  94 CALM      30.23S
ORANGE CITY    SUNNY     66  61  82 CALM      30.23S
SHELDON        SUNNY     63  63 100 CALM      30.22S
SIOUX CITY     SUNNY     70  64  81 CALM      30.21S
SPENCER        SUNNY     63  60  90 N3        30.22S
STORM LAKE     SUNNY     66  59  77 N5        30.22S
$$

ABBREVIATIONS USED IN REMARKS
   TC - TEMPERATURE IN CELSIUS
  WCI - WIND CHILL INDEX
   HX - HEAT INDEX
  VSB - VISIBILITY





USA.gov is the U.S. government's official web portal to all federal, state and local government web resources and services.